Simultaneous Nadir Overpasses (SNOs) Predictions

Prediction of SNOs between METOP-B and TERRA Satellite Orbit:

Table of predicted SNOs for the next 14.0 days since TLE Epoch: 4/12/2025
Index Date (METOP-B) Time (METOP-B) Lat,Lon (METOP-B) SZA (METOP-B ) Date (TERRA) Time (TERRA) Lat,Lon (TERRA) SZA (TERRA ) Distance(km) Time Diff (sec)
1 04/12/2025 04:54:57 79.00, 114.21 70.27 04/12/2025 04:53:54 79.01, 114.32 70.27 2.52 63
2 04/14/2025 16:53:57 -77.31, 105.71 112.44 04/14/2025 16:55:11 -77.24, 106.03 112.51 11.55 74
3 04/14/2025 17:44:03 78.73, -79.79 69.05 04/14/2025 17:43:57 78.74, -79.69 69.06 2.46 6
4 04/17/2025 06:33:07 78.51, 86.68 67.91 04/17/2025 06:33:58 78.51, 86.61 67.91 1.70 51
5 04/17/2025 07:23:40 -78.83,-104.10 111.75 04/17/2025 07:23:10 -78.83,-104.03 111.75 1.62 30
6 04/19/2025 20:12:45 -78.57, 62.08 112.92 04/19/2025 20:13:11 -78.58, 62.10 112.91 0.41 26
7 04/19/2025 21:03:14 79.01,-127.90 67.57 04/19/2025 21:02:20 79.00,-127.97 67.56 1.55 54
8 04/22/2025 09:52:19 78.70, 37.91 66.37 04/22/2025 09:52:20 78.70, 37.87 66.36 0.97 1
9 04/24/2025 22:41:27 78.30,-156.68 65.08 04/24/2025 22:42:22 78.30,-156.60 65.09 1.92 55



Historial Predications of SNOs between METOP-B and TERRA
